User: anonymous   Login
Location: Unspecified
(0.0000°N, 0.0000°E)
Time: 01:30:39
(UTC+00:00)
Language:

AO-27 - Orbit

View from above orbital plane
View from above orbital plane
View from above satellite
View from above satellite

Ground track
Ground track

The orbit data is extracted from the following two-line orbital elements,

1 22825U 93061C   21338.04003840  .00000021  00000-0  26160-4 0  9996
2 22825  98.9074 359.7385 0007438 259.7534 100.2809 14.30133801470224
Epoch (UTC): 04 December 2021 00:57:39
Eccentricity: 0.0007438
inclination: 98.9074°
perigee height: 786 km
apogee height: 796 km
right ascension of ascending node: 359.7385°
argument of perigee: 259.7534°
revolutions per day: 14.30133801
mean anomaly at epoch: 100.2809°
orbit number at epoch: 47022

The dashed part of the orbit path shows where the satellite is in the earth's shadow,  

DLR